EAL72 KATL-KJFK

Flight info

Callsign EAL72
Flight time 1h 55m
Altitude 37000
Route PHIIL3 HRTWL Q64 SAWED Q108 SIE CAMRN5
Aircraft L101/H-SDFGHIRWXY/S

Departure

Time 2026-05-06 08:53
Airport Hartsfield Jackson Atlanta International Airport (KATL)

Arrival

Time 2026-05-06 10:48
Airport John F. Kennedy International Airport (KJFK)
Time Latitude Longitude Altitude Speed Heading
2026-05-06 08:29 33.64232 -84.43186 1011 ft 0 kts 270°
2026-05-06 08:43 33.64232 -84.43177 1011 ft 3 kts 270°
2026-05-06 08:43 33.64233 -84.43158 1011 ft 3 kts 246°
2026-05-06 08:44 33.64235 -84.43136 1011 ft 2 kts 297°
2026-05-06 08:44 33.64232 -84.43115 1011 ft 3 kts 244°
2026-05-06 08:44 33.64244 -84.43099 1011 ft 3 kts 191°
2026-05-06 08:44 33.64247 -84.43098 1011 ft 0 kts 186°
2026-05-06 08:46 33.64245 -84.43099 1011 ft 1 kts 186°
2026-05-06 08:46 33.64220 -84.43102 1011 ft 6 kts 186°
2026-05-06 08:46 33.64163 -84.43108 1011 ft 10 kts 186°
2026-05-06 08:47 33.64112 -84.43114 1011 ft 12 kts 186°
2026-05-06 08:47 33.63980 -84.43128 1011 ft 16 kts 182°
2026-05-06 08:47 33.63867 -84.43130 1011 ft 18 kts 181°
2026-05-06 08:47 33.63741 -84.43128 1011 ft 18 kts 180°
2026-05-06 08:48 33.63670 -84.43079 1011 ft 8 kts 109°
2026-05-06 08:48 33.63665 -84.43012 1011 ft 9 kts 89°
2026-05-06 08:48 33.63665 -84.42916 1011 ft 14 kts 91°
2026-05-06 08:48 33.63663 -84.42786 1011 ft 17 kts 96°
2026-05-06 08:49 33.63656 -84.42634 1012 ft 19 kts 88°
2026-05-06 08:49 33.63656 -84.42466 1012 ft 21 kts 90°
2026-05-06 08:49 33.63656 -84.42280 1012 ft 24 kts 90°
2026-05-06 08:49 33.63655 -84.42073 1012 ft 26 kts 91°
2026-05-06 08:50 33.63656 -84.41848 1011 ft 28 kts 90°
2026-05-06 08:50 33.63656 -84.41608 1011 ft 30 kts 90°
2026-05-06 08:50 33.63655 -84.41353 1011 ft 31 kts 90°
2026-05-06 08:50 33.63655 -84.41085 1011 ft 33 kts 90°
2026-05-06 08:51 33.63654 -84.40821 1011 ft 24 kts 91°
2026-05-06 08:51 33.63557 -84.40745 1012 ft 18 kts 179°
2026-05-06 08:51 33.63477 -84.40796 1012 ft 11 kts 253°
2026-05-06 08:51 33.63470 -84.40867 1012 ft 0 kts 270°
2026-05-06 08:52 33.63470 -84.40892 1012 ft 20 kts 270°
2026-05-06 08:52 33.63471 -84.41424 1011 ft 111 kts 269°
2026-05-06 08:52 33.63461 -84.42699 1033 ft 190 kts 270°
2026-05-06 08:52 33.63465 -84.44460 1554 ft 233 kts 268°
2026-05-06 08:53 33.63418 -84.46541 2211 ft 256 kts 263°
2026-05-06 08:53 33.63162 -84.48580 2772 ft 242 kts 249°
2026-05-06 08:53 33.62485 -84.50409 3051 ft 239 kts 240°
2026-05-06 08:53 33.61731 -84.52178 3357 ft 247 kts 240°
2026-05-06 08:54 33.60871 -84.54126 4248 ft 276 kts 240°
2026-05-06 08:54 33.59745 -84.56013 5933 ft 278 kts 224°
2026-05-06 08:54 33.58045 -84.57156 7525 ft 296 kts 198°
2026-05-06 08:54 33.55891 -84.57275 8788 ft 317 kts 179°
2026-05-06 08:55 33.53736 -84.56942 10677 ft 301 kts 178°
2026-05-06 08:55 33.51707 -84.56569 12221 ft 308 kts 178°
2026-05-06 08:55 33.49491 -84.55880 12703 ft 354 kts 159°
2026-05-06 08:55 33.47396 -84.54151 13426 ft 375 kts 140°
2026-05-06 08:56 33.45768 -84.51675 14849 ft 378 kts 122°
2026-05-06 08:56 33.44979 -84.48676 15988 ft 392 kts 93°
2026-05-06 08:56 33.44844 -84.45330 16611 ft 411 kts 91°
2026-05-06 08:56 33.44716 -84.42052 17297 ft 393 kts 91°
2026-05-06 08:57 33.44590 -84.38728 18008 ft 403 kts 91°
2026-05-06 08:57 33.44467 -84.35320 18721 ft 411 kts 90°
2026-05-06 08:57 33.44349 -84.31908 19390 ft 419 kts 90°
2026-05-06 08:57 33.44234 -84.28386 20112 ft 426 kts 90°
2026-05-06 08:58 33.44121 -84.24806 20863 ft 431 kts 90°
2026-05-06 08:58 33.44013 -84.21180 21641 ft 437 kts 90°
2026-05-06 08:58 33.43910 -84.17548 22452 ft 442 kts 90°
2026-05-06 08:58 33.43809 -84.13835 23298 ft 447 kts 89°
2026-05-06 08:59 33.43712 -84.10086 24075 ft 452 kts 89°
2026-05-06 08:59 33.43620 -84.06299 24811 ft 457 kts 89°
2026-05-06 08:59 33.43533 -84.02520 25528 ft 461 kts 89°
2026-05-06 08:59 33.43449 -83.98669 26284 ft 465 kts 89°
2026-05-06 09:00 33.43369 -83.94765 27047 ft 469 kts 88°
2026-05-06 09:00 33.43294 -83.90831 27809 ft 472 kts 88°
2026-05-06 09:00 33.43223 -83.86923 28587 ft 474 kts 88°
2026-05-06 09:00 33.43156 -83.82967 29367 ft 476 kts 88°
2026-05-06 09:01 33.43094 -83.79022 30144 ft 477 kts 88°
2026-05-06 09:01 33.43035 -83.75035 30761 ft 479 kts 87°
2026-05-06 09:01 33.42980 -83.71015 31386 ft 481 kts 87°
2026-05-06 09:01 33.42930 -83.67003 31959 ft 483 kts 87°
2026-05-06 09:02 33.42885 -83.63016 32525 ft 486 kts 86°
2026-05-06 09:02 33.42843 -83.58883 33089 ft 488 kts 86°
2026-05-06 09:02 33.43001 -83.54886 33483 ft 486 kts 71°
2026-05-06 09:02 33.44059 -83.51090 33766 ft 472 kts 50°
2026-05-06 09:03 33.45943 -83.47995 34147 ft 449 kts 30°
2026-05-06 09:03 33.48359 -83.45903 34508 ft 421 kts 11°
2026-05-06 09:03 33.51075 -83.44930 34903 ft 391 kts 351°
2026-05-06 09:03 33.53676 -83.45157 35311 ft 363 kts 331°
2026-05-06 09:04 33.55823 -83.46441 35713 ft 341 kts 311°
2026-05-06 09:04 33.57298 -83.48593 36124 ft 331 kts 292°
2026-05-06 09:04 33.57876 -83.51252 36572 ft 333 kts 276°
2026-05-06 09:04 33.57892 -83.53107 36862 ft 340 kts 272°
2026-05-06 09:05 33.57818 -83.57012 36919 ft 363 kts 274°
2026-05-06 09:05 33.57933 -83.62137 36958 ft 373 kts 275°
2026-05-06 09:06 33.58144 -83.69429 36995 ft 377 kts 274°
2026-05-06 09:06 33.58296 -83.75730 36997 ft 377 kts 274°
2026-05-06 09:07 33.58518 -83.80972 36976 ft 376 kts 282°
2026-05-06 09:07 33.59394 -83.83908 36929 ft 375 kts 299°
2026-05-06 09:07 33.61124 -83.86223 36936 ft 387 kts 317°
2026-05-06 09:07 33.63590 -83.87713 36958 ft 410 kts 334°
2026-05-06 09:08 33.66516 -83.88120 36987 ft 439 kts 352°
2026-05-06 09:08 33.69613 -83.87331 36996 ft 472 kts 10°
2026-05-06 09:08 33.72572 -83.85334 37001 ft 503 kts 28°
2026-05-06 09:08 33.75049 -83.82302 37003 ft 530 kts 45°
2026-05-06 09:09 33.76878 -83.78345 37019 ft 553 kts 63°
2026-05-06 09:09 33.77823 -83.73793 37019 ft 568 kts 81°
2026-05-06 09:09 33.77774 -83.68991 37020 ft 576 kts 98°
2026-05-06 09:09 33.76735 -83.64385 37019 ft 576 kts 116°
2026-05-06 09:10 33.74764 -83.60225 37013 ft 568 kts 134°
2026-05-06 09:10 33.72045 -83.56879 37003 ft 552 kts 151°
2026-05-06 09:10 33.68853 -83.54598 37016 ft 530 kts 169°
2026-05-06 09:10 33.65358 -83.53455 37009 ft 501 kts 187°
2026-05-06 09:11 33.62020 -83.53530 37009 ft 471 kts 204°
2026-05-06 09:11 33.58967 -83.54631 37079 ft 452 kts 211°
2026-05-06 09:11 33.55802 -83.55553 37023 ft 482 kts 197°
2026-05-06 09:11 33.52404 -83.55397 36983 ft 508 kts 179°
2026-05-06 09:12 33.48965 -83.54021 36975 ft 534 kts 161°
2026-05-06 09:12 33.45824 -83.51494 36998 ft 554 kts 143°
2026-05-06 09:12 33.43285 -83.48025 37007 ft 568 kts 126°
2026-05-06 09:12 33.41498 -83.43757 37014 ft 574 kts 108°
2026-05-06 09:13 33.40669 -83.39084 37011 ft 572 kts 90°
2026-05-06 09:13 33.40849 -83.34372 37018 ft 563 kts 72°
2026-05-06 09:13 33.41985 -83.30021 37023 ft 546 kts 55°
2026-05-06 09:13 33.43978 -83.26268 37023 ft 522 kts 37°
2026-05-06 09:14 33.46621 -83.23442 37024 ft 494 kts 20°
2026-05-06 09:14 33.49596 -83.21668 37080 ft 473 kts
2026-05-06 09:14 33.52690 -83.20332 37120 ft 474 kts
2026-05-06 09:15 33.58901 -83.17446 37057 ft 480 kts
2026-05-06 09:15 33.65069 -83.14419 37032 ft 480 kts
2026-05-06 09:16 33.71244 -83.11417 37029 ft 480 kts
2026-05-06 09:16 33.77463 -83.08388 37057 ft 480 kts 10°
2026-05-06 09:16 33.80523 -83.06697 37000 ft 491 kts 18°
2026-05-06 09:17 33.83343 -83.04303 36961 ft 513 kts 32°
2026-05-06 09:17 33.85749 -83.01002 36980 ft 532 kts 45°
2026-05-06 09:17 33.87708 -82.97230 37029 ft 544 kts 52°
2026-05-06 09:18 33.91161 -82.88976 37025 ft 552 kts 56°
2026-05-06 09:18 33.94340 -82.80576 37018 ft 555 kts 58°
2026-05-06 09:19 33.97413 -82.72002 37014 ft 554 kts 58°
2026-05-06 09:19 34.00980 -82.63982 37058 ft 540 kts 49°
2026-05-06 09:20 34.04877 -82.56269 37025 ft 539 kts 50°
2026-05-06 09:20 34.08723 -82.48466 37028 ft 539 kts 49°
2026-05-06 09:21 34.12584 -82.40766 37033 ft 538 kts 49°
2026-05-06 09:21 34.16482 -82.33019 37030 ft 538 kts 49°
2026-05-06 09:22 34.20359 -82.25297 37039 ft 538 kts 49°
2026-05-06 09:22 34.24228 -82.17582 37042 ft 538 kts 49°
2026-05-06 09:23 34.28115 -82.09849 37036 ft 537 kts 49°
2026-05-06 09:23 34.31963 -82.02150 37033 ft 537 kts 49°
2026-05-06 09:24 34.35845 -81.94408 37029 ft 536 kts 49°
2026-05-06 09:24 34.39717 -81.86696 37048 ft 537 kts 49°
2026-05-06 09:25 34.43565 -81.79014 37056 ft 537 kts 49°
2026-05-06 09:25 34.47460 -81.71223 37033 ft 536 kts 49°
2026-05-06 09:26 34.51302 -81.63521 37019 ft 535 kts 49°
2026-05-06 09:26 34.55150 -81.55792 37014 ft 534 kts 49°
2026-05-06 09:27 34.58965 -81.48114 37017 ft 533 kts 49°
2026-05-06 09:27 34.62801 -81.40378 37017 ft 533 kts 49°
2026-05-06 09:28 34.66616 -81.32667 37024 ft 533 kts 49°
2026-05-06 09:28 34.70417 -81.24966 37037 ft 533 kts 49°
2026-05-06 09:29 34.74240 -81.17197 37028 ft 532 kts 49°
2026-05-06 09:29 34.78024 -81.09497 37028 ft 532 kts 49°
2026-05-06 09:30 34.81629 -81.01643 37025 ft 541 kts 56°
2026-05-06 09:30 34.84530 -80.93088 37033 ft 546 kts 58°
2026-05-06 09:31 34.87529 -80.84667 37032 ft 541 kts 56°
2026-05-06 09:31 34.90628 -80.76301 37057 ft 540 kts 56°
2026-05-06 09:32 34.93677 -80.67987 37028 ft 538 kts 56°
2026-05-06 09:32 34.96737 -80.59641 37022 ft 538 kts 56°
2026-05-06 09:33 34.99775 -80.51341 37022 ft 537 kts 56°
2026-05-06 09:33 35.02811 -80.43014 37019 ft 536 kts 56°
2026-05-06 09:34 35.05830 -80.34720 37028 ft 536 kts 56°
2026-05-06 09:34 35.08854 -80.26391 37039 ft 535 kts 56°
2026-05-06 09:35 35.11867 -80.18076 37051 ft 536 kts 56°
2026-05-06 09:35 35.14871 -80.09757 37034 ft 535 kts 56°
2026-05-06 09:36 35.17872 -80.01420 37026 ft 534 kts 56°
2026-05-06 09:36 35.20836 -79.93123 37024 ft 535 kts 57°
2026-05-06 09:37 35.23758 -79.84778 37013 ft 535 kts 56°
2026-05-06 09:37 35.26725 -79.76420 37006 ft 534 kts 56°
2026-05-06 09:38 35.29698 -79.68087 37033 ft 533 kts 56°
2026-05-06 09:38 35.32650 -79.59799 37044 ft 535 kts 56°
2026-05-06 09:39 35.35650 -79.51366 37049 ft 538 kts 56°
2026-05-06 09:39 35.38617 -79.42983 37053 ft 539 kts 56°
2026-05-06 09:40 35.41597 -79.34538 37048 ft 536 kts 56°
2026-05-06 09:40 35.46017 -79.21988 37047 ft 535 kts 56°
2026-05-06 09:41 35.48969 -79.13585 37044 ft 535 kts 56°
2026-05-06 09:41 35.51902 -79.05207 37039 ft 535 kts 57°
2026-05-06 09:42 35.54834 -78.96805 37044 ft 533 kts 57°
2026-05-06 09:42 35.57743 -78.88450 37040 ft 533 kts 57°
2026-05-06 09:43 35.60640 -78.80109 37034 ft 533 kts 57°
2026-05-06 09:43 35.63514 -78.71668 37049 ft 534 kts 57°
2026-05-06 09:44 35.66350 -78.63231 37034 ft 531 kts 57°
2026-05-06 09:44 35.69201 -78.54890 37040 ft 530 kts 57°
2026-05-06 09:45 35.72078 -78.46505 37048 ft 531 kts 57°
2026-05-06 09:45 35.74935 -78.38143 37041 ft 533 kts 57°
2026-05-06 09:46 35.77800 -78.29679 37041 ft 533 kts 58°
2026-05-06 09:46 35.80647 -78.21288 37042 ft 533 kts 57°
2026-05-06 09:47 35.83516 -78.12840 37043 ft 533 kts 57°
2026-05-06 09:47 35.86372 -78.04410 37049 ft 533 kts 58°
2026-05-06 09:48 35.89222 -77.95974 37045 ft 534 kts 58°
2026-05-06 09:48 35.92049 -77.87576 37053 ft 531 kts 57°
2026-05-06 09:49 35.94887 -77.79135 37047 ft 530 kts 57°
2026-05-06 09:49 35.98185 -77.71201 37000 ft 501 kts 39°
2026-05-06 09:50 36.02732 -77.64866 37057 ft 498 kts 38°
2026-05-06 09:50 36.07185 -77.58196 37036 ft 500 kts 38°
2026-05-06 09:51 36.11727 -77.51791 37061 ft 494 kts 36°
2026-05-06 09:51 36.16345 -77.45547 37043 ft 493 kts 36°
2026-05-06 09:52 36.20194 -77.40342 37045 ft 493 kts 36°
2026-05-06 09:52 36.24813 -77.34097 37048 ft 493 kts 36°
2026-05-06 09:53 36.29450 -77.27832 37044 ft 493 kts 35°
2026-05-06 09:53 36.34333 -77.21963 37049 ft 483 kts 30°
2026-05-06 09:54 36.39296 -77.16414 37047 ft 483 kts 31°
2026-05-06 09:54 36.44266 -77.10760 37046 ft 482 kts 31°
2026-05-06 09:55 36.49216 -77.05192 37031 ft 481 kts 30°
2026-05-06 09:55 36.54202 -76.99595 37033 ft 483 kts 30°
2026-05-06 09:56 36.59183 -76.93999 37034 ft 486 kts 31°
2026-05-06 09:56 36.64193 -76.88353 37040 ft 486 kts 31°
2026-05-06 09:57 36.69191 -76.82712 37044 ft 486 kts 31°
2026-05-06 09:57 36.74190 -76.77059 37056 ft 485 kts 31°
2026-05-06 09:58 36.79218 -76.71373 37048 ft 488 kts 31°
2026-05-06 09:58 36.84240 -76.65676 37049 ft 489 kts 31°
2026-05-06 09:59 36.89265 -76.59963 37047 ft 489 kts 31°
2026-05-06 09:59 36.94311 -76.54217 37048 ft 489 kts 31°
2026-05-06 10:00 36.99326 -76.48501 37021 ft 492 kts 31°
2026-05-06 10:00 37.04404 -76.42695 37018 ft 490 kts 31°
2026-05-06 10:01 37.09416 -76.36953 37019 ft 490 kts 31°
2026-05-06 10:01 37.14440 -76.31190 37006 ft 490 kts 31°
2026-05-06 10:02 37.19489 -76.25391 37020 ft 492 kts 31°
2026-05-06 10:02 37.24526 -76.19593 37016 ft 493 kts 31°
2026-05-06 10:03 37.29581 -76.13760 37014 ft 493 kts 32°
2026-05-06 10:03 37.34604 -76.07950 37023 ft 491 kts 32°
2026-05-06 10:04 37.39639 -76.02118 37030 ft 491 kts 32°
2026-05-06 10:04 37.44648 -75.96311 37010 ft 492 kts 32°
2026-05-06 10:05 37.49670 -75.90473 37019 ft 492 kts 32°
2026-05-06 10:05 37.54960 -75.85179 37018 ft 474 kts 20°
2026-05-06 10:06 37.60579 -75.80874 37011 ft 475 kts 21°
2026-05-06 10:06 37.66162 -75.76447 37019 ft 474 kts 21°
2026-05-06 10:07 37.71801 -75.72125 37023 ft 472 kts 20°
2026-05-06 10:07 37.77424 -75.67889 37034 ft 471 kts 20°
2026-05-06 10:08 37.83089 -75.63603 37016 ft 474 kts 21°
2026-05-06 10:08 37.88603 -75.58955 37016 ft 480 kts 24°
2026-05-06 10:09 37.94086 -75.54128 37017 ft 479 kts 24°
2026-05-06 10:09 37.99580 -75.49363 37037 ft 479 kts 24°
2026-05-06 10:10 38.05085 -75.44594 37001 ft 480 kts 23°
2026-05-06 10:10 38.10720 -75.39969 36995 ft 478 kts 22°
2026-05-06 10:11 38.16278 -75.35442 36990 ft 478 kts 22°
2026-05-06 10:11 38.21888 -75.30852 37010 ft 479 kts 22°
2026-05-06 10:12 38.27737 -75.27364 36962 ft 445 kts
2026-05-06 10:12 38.33804 -75.26401 37019 ft 442 kts 357°
2026-05-06 10:13 38.39910 -75.25145 37003 ft 447 kts
2026-05-06 10:13 38.46024 -75.23775 37011 ft 447 kts 359°
2026-05-06 10:14 38.52182 -75.22489 37003 ft 447 kts 359°
2026-05-06 10:14 38.58346 -75.21192 36991 ft 448 kts 359°
2026-05-06 10:15 38.64476 -75.19899 37004 ft 448 kts 359°
2026-05-06 10:15 38.67528 -75.19066 36939 ft 460 kts
2026-05-06 10:15 38.70456 -75.17250 36920 ft 479 kts 24°
2026-05-06 10:16 38.75932 -75.12235 36993 ft 485 kts 24°
2026-05-06 10:16 38.81547 -75.07403 36974 ft 486 kts 25°
2026-05-06 10:17 38.87024 -75.02282 36985 ft 489 kts 27°
2026-05-06 10:17 38.92472 -74.96971 36971 ft 490 kts 27°
2026-05-06 10:18 38.97872 -74.91688 36973 ft 490 kts 28°
2026-05-06 10:18 39.03326 -74.86323 36971 ft 491 kts 28°
2026-05-06 10:19 39.08701 -74.81003 36972 ft 493 kts 29°
2026-05-06 10:19 39.14015 -74.75356 36972 ft 496 kts 31°
2026-05-06 10:20 39.16635 -74.72491 37177 ft 491 kts 31°
2026-05-06 10:20 39.19243 -74.69655 37704 ft 492 kts 30°
2026-05-06 10:20 39.21907 -74.66792 37248 ft 492 kts 30°
2026-05-06 10:20 39.24504 -74.63983 36694 ft 480 kts 31°
2026-05-06 10:21 39.27001 -74.61265 36196 ft 469 kts 31°
2026-05-06 10:21 39.29479 -74.58568 35677 ft 458 kts 31°
2026-05-06 10:21 39.31878 -74.55964 34911 ft 448 kts 31°
2026-05-06 10:21 39.34240 -74.53399 34049 ft 437 kts 31°
2026-05-06 10:22 39.36562 -74.50880 32987 ft 431 kts 31°
2026-05-06 10:22 39.38856 -74.48408 31959 ft 435 kts 32°
2026-05-06 10:22 39.41188 -74.45890 30960 ft 434 kts 33°
2026-05-06 10:22 39.43482 -74.43387 30024 ft 430 kts 33°
2026-05-06 10:23 39.45757 -74.40886 28915 ft 424 kts 34°
2026-05-06 10:23 39.47987 -74.38431 27855 ft 419 kts 34°
2026-05-06 10:23 39.50202 -74.36001 26823 ft 412 kts 34°
2026-05-06 10:23 39.52354 -74.33650 25847 ft 406 kts 34°
2026-05-06 10:24 39.54506 -74.31297 24882 ft 401 kts 34°
2026-05-06 10:24 39.56623 -74.28977 23963 ft 395 kts 34°
2026-05-06 10:24 39.58708 -74.26687 22961 ft 390 kts 35°
2026-05-06 10:24 39.60797 -74.24390 21906 ft 385 kts 36°
2026-05-06 10:25 39.62781 -74.22207 20894 ft 379 kts 36°
2026-05-06 10:25 39.64783 -74.20006 19938 ft 374 kts 36°
2026-05-06 10:25 39.66764 -74.17828 18987 ft 370 kts 37°
2026-05-06 10:25 39.68697 -74.15702 18048 ft 365 kts 37°
2026-05-06 10:26 39.70655 -74.13543 17007 ft 361 kts 38°
2026-05-06 10:26 39.72531 -74.11472 16623 ft 352 kts 38°
2026-05-06 10:26 39.74389 -74.09422 16748 ft 357 kts 38°
2026-05-06 10:26 39.76304 -74.07313 16192 ft 361 kts 38°
2026-05-06 10:27 39.78271 -74.05148 15460 ft 377 kts 38°
2026-05-06 10:27 39.80289 -74.02923 14699 ft 380 kts 39°
2026-05-06 10:27 39.82314 -74.00702 13966 ft 380 kts 37°
2026-05-06 10:27 39.84421 -73.98756 13173 ft 367 kts 30°
2026-05-06 10:28 39.86588 -73.97161 12412 ft 348 kts 26°
2026-05-06 10:28 39.88710 -73.95667 11648 ft 342 kts 27°
2026-05-06 10:28 39.90759 -73.94164 11032 ft 337 kts 28°
2026-05-06 10:28 39.92784 -73.92645 11078 ft 336 kts 28°
2026-05-06 10:29 39.94836 -73.91130 11086 ft 335 kts 27°
2026-05-06 10:29 39.96861 -73.89669 11035 ft 329 kts 27°
2026-05-06 10:29 39.98847 -73.88256 10986 ft 327 kts 26°
2026-05-06 10:29 40.00886 -73.86958 10924 ft 324 kts 19°
2026-05-06 10:30 40.02965 -73.85777 10900 ft 326 kts 24°
2026-05-06 10:30 40.04980 -73.84400 10842 ft 326 kts 27°
2026-05-06 10:30 40.06965 -73.82949 10771 ft 328 kts 28°
2026-05-06 10:30 40.08943 -73.81467 10591 ft 327 kts 28°
2026-05-06 10:31 40.10890 -73.79997 10471 ft 326 kts 28°
2026-05-06 10:31 40.12859 -73.78504 10330 ft 326 kts 28°
2026-05-06 10:31 40.14823 -73.77013 10189 ft 325 kts 28°
2026-05-06 10:31 40.16785 -73.75526 10043 ft 324 kts 28°
2026-05-06 10:32 40.18708 -73.74070 9994 ft 323 kts 28°
2026-05-06 10:32 40.20659 -73.72594 10039 ft 324 kts 28°
2026-05-06 10:32 40.22619 -73.71111 10016 ft 324 kts 28°
2026-05-06 10:32 40.24570 -73.69634 10019 ft 324 kts 28°
2026-05-06 10:33 40.26534 -73.68148 10015 ft 324 kts 28°
2026-05-06 10:33 40.28463 -73.66688 10011 ft 324 kts 28°
2026-05-06 10:33 40.30422 -73.65203 10010 ft 324 kts 28°
2026-05-06 10:33 40.32380 -73.63721 10019 ft 324 kts 28°
2026-05-06 10:34 40.34311 -73.62260 10016 ft 324 kts 28°
2026-05-06 10:34 40.36266 -73.60780 10008 ft 324 kts 28°
2026-05-06 10:34 40.38229 -73.59294 10015 ft 324 kts 28°
2026-05-06 10:34 40.40187 -73.57810 9932 ft 326 kts 28°
2026-05-06 10:35 40.42119 -73.56341 9722 ft 324 kts 28°
2026-05-06 10:35 40.44072 -73.54855 9491 ft 323 kts 28°
2026-05-06 10:35 40.46011 -73.53378 9284 ft 321 kts 28°
2026-05-06 10:35 40.48025 -73.52097 9059 ft 317 kts 18°
2026-05-06 10:36 40.50081 -73.51160 8855 ft 315 kts 14°
2026-05-06 10:36 40.52179 -73.50340 8655 ft 313 kts 12°
2026-05-06 10:36 40.54273 -73.49571 8447 ft 311 kts 11°
2026-05-06 10:36 40.56371 -73.48818 8254 ft 310 kts 11°
2026-05-06 10:37 40.57040 -73.48580 8161 ft 310 kts 11°
2026-05-06 10:38 40.58013 -73.48235 7997 ft 310 kts 11°
2026-05-06 10:38 40.60105 -73.47496 7595 ft 307 kts 11°
2026-05-06 10:38 40.62159 -73.46769 7221 ft 302 kts 11°
2026-05-06 10:38 40.64137 -73.46068 6661 ft 292 kts 11°
2026-05-06 10:39 40.66072 -73.45380 6124 ft 283 kts 11°
2026-05-06 10:39 40.67954 -73.44709 5568 ft 274 kts 11°
2026-05-06 10:39 40.69799 -73.44044 4792 ft 276 kts 11°
2026-05-06 10:39 40.71646 -73.43470 3908 ft 274 kts 359°
2026-05-06 10:40 40.73512 -73.43777 2989 ft 267 kts 329°
2026-05-06 10:40 40.75011 -73.45023 2525 ft 249 kts 309°
2026-05-06 10:40 40.76191 -73.46509 2600 ft 225 kts 303°
2026-05-06 10:40 40.77255 -73.48018 2752 ft 224 kts 302°
2026-05-06 10:41 40.78297 -73.49574 2814 ft 222 kts 296°
2026-05-06 10:41 40.78884 -73.51322 2593 ft 200 kts 268°
2026-05-06 10:41 40.78782 -73.53027 2609 ft 172 kts 251°
2026-05-06 10:41 40.78454 -73.54413 2876 ft 151 kts 246°
2026-05-06 10:42 40.78128 -73.55709 3358 ft 153 kts 248°
2026-05-06 10:42 40.77820 -73.57102 3420 ft 158 kts 249°
2026-05-06 10:42 40.77527 -73.58498 3300 ft 157 kts 249°
2026-05-06 10:42 40.77242 -73.59866 3087 ft 154 kts 249°
2026-05-06 10:43 40.76970 -73.61182 2864 ft 142 kts 249°
2026-05-06 10:43 40.76738 -73.62347 2965 ft 131 kts 249°
2026-05-06 10:43 40.76505 -73.63516 2953 ft 130 kts 249°
2026-05-06 10:44 40.76044 -73.65819 2747 ft 127 kts 245°
2026-05-06 10:44 40.75463 -73.66661 2511 ft 125 kts 220°
2026-05-06 10:44 40.74741 -73.67281 2738 ft 125 kts 217°
2026-05-06 10:44 40.73996 -73.67894 2427 ft 126 kts 216°
2026-05-06 10:45 40.73258 -73.68486 2077 ft 123 kts 215°
2026-05-06 10:45 40.72526 -73.69068 1887 ft 123 kts 215°
2026-05-06 10:45 40.71790 -73.69653 1727 ft 123 kts 215°
2026-05-06 10:45 40.71067 -73.70225 1538 ft 122 kts 215°
2026-05-06 10:46 40.70339 -73.70801 1384 ft 123 kts 213°
2026-05-06 10:46 40.69608 -73.71391 1231 ft 125 kts 214°
2026-05-06 10:46 40.68858 -73.72002 1052 ft 127 kts 212°
2026-05-06 10:46 40.68101 -73.72614 831 ft 131 kts 212°
2026-05-06 10:47 40.67308 -73.73265 772 ft 137 kts 211°
2026-05-06 10:47 40.66486 -73.73919 403 ft 144 kts 208°
2026-05-06 10:47 40.65637 -73.74595 313 ft 138 kts 209°
2026-05-06 10:47 40.64863 -73.75217 157 ft 124 kts 209°
2026-05-06 10:48 40.64163 -73.75756 31 ft 101 kts 212°
2026-05-06 10:48 40.63783 -73.76061 26 ft 49 kts 211°
2026-05-06 10:48 40.63506 -73.76279 28 ft 42 kts 210°
2026-05-06 10:48 40.63305 -73.76482 31 ft 35 kts 235°
2026-05-06 10:49 40.63241 -73.76721 27 ft 20 kts 287°
2026-05-06 10:49 40.63306 -73.76872 30 ft 20 kts 303°
2026-05-06 10:49 40.63383 -73.77041 30 ft 21 kts 301°
2026-05-06 10:49 40.63467 -73.77222 30 ft 25 kts 301°
2026-05-06 10:50 40.63557 -73.77422 25 ft 26 kts 300°
2026-05-06 10:50 40.63655 -73.77622 29 ft 22 kts 303°
2026-05-06 10:50 40.63647 -73.77715 28 ft 3 kts 220°
2026-05-06 10:50 40.63620 -73.77737 30 ft 8 kts 212°
2026-05-06 10:51 40.63560 -73.77787 29 ft 12 kts 212°
2026-05-06 10:51 40.63478 -73.77850 27 ft 15 kts 210°
2026-05-06 10:51 40.63386 -73.77927 27 ft 11 kts 233°
2026-05-06 10:51 40.63386 -73.77969 28 ft 6 kts 287°
2026-05-06 10:52 40.63413 -73.78045 31 ft 12 kts 299°
2026-05-06 10:52 40.63463 -73.78160 30 ft 16 kts 301°
2026-05-06 10:52 40.63528 -73.78302 29 ft 20 kts 301°
2026-05-06 10:52 40.63607 -73.78477 26 ft 24 kts 300°
2026-05-06 10:53 40.63698 -73.78673 25 ft 26 kts 301°
2026-05-06 10:53 40.63795 -73.78892 28 ft 30 kts 300°
2026-05-06 10:53 40.63907 -73.79137 30 ft 32 kts 299°
2026-05-06 10:53 40.63986 -73.79235 30 ft 8 kts
2026-05-06 10:54 40.64014 -73.79215 30 ft 4 kts 45°
2026-05-06 10:54 40.64050 -73.79168 28 ft 11 kts 45°
2026-05-06 10:54 40.64109 -73.79107 30 ft 6 kts 12°
2026-05-06 10:54 40.64139 -73.79114 29 ft 2 kts 338°
2026-05-06 10:55 40.64152 -73.79127 29 ft 2 kts 320°
2026-05-06 10:55 40.64160 -73.79142 29 ft 0 kts 307°
2026-05-06 10:55 40.64161 -73.79143 29 ft 0 kts 307°